sat.trackr.live / text

‹ back to catalog

STARLINK-35023

NORAD 65279 · 2025-184G

PAYLOAD ACTIVE UNKNOWN

§ Identity

Operator
Country
US
Launch date
2025-08-22
Launch site
AFWTR
Launch vehicle
Mass (kg)
RCS (m²)

Purposes: comms

External: N2YO · Heavens-Above · Gunter

§ Orbital elements

Epoch: 2026-05-25T03:27:58.402944Z

Period
95.64 min
Inclination
97.4485°
Eccentricity
0.0001029
Mean motion
15.05649455 rev/d
Perigee alt
548.8 km
Apogee alt
550.2 km
Semi-major
6,927.6 km
B*
1.2964e-4
RAAN
197.6340°
Arg perigee
88.6085°
Mean anomaly
271.5260°
Rev number
4,280

§ Raw data

STARLINK-350231 65279U 25184G   26145.14442596  .00001812  00000+0  12964-3 0  99982 65279  97.4485 197.6340 0001029  88.6085 271.5260 15.05649455 42806

JSON: /api/v1/satellites/65279 · /tle

For live sub-satellite position, see the globe view (requires WebGL).

§ Visibility from observer

Set your observer location to see the next 7 days of passes ≥ 10°. The values pass through the URL so the page stays shareable.

No JS? Fill the form by hand. The geolocation button needs JavaScript.